User: anonymous   Login
Location: Wildcat Hills Observatory
(41.6350°N, 103.6812°W)
Time: 04:33:26
(UTC-06:00)
Language:

Cosmos 1634 Rocket - Orbit

View from above orbital plane
View from above orbital plane
View from above satellite
View from above satellite

Ground track
Ground track

The orbit data is extracted from the following two-line orbital elements,

1 15598U 85022B   15116.70965499  .00000143  00000-0  13063-3 0  9992
2 15598 082.9367 328.7006 0023094 135.1316 293.2675 13.76515060512814
Epoch (UTC): 26 April 2015 17:01:54
Eccentricity: 0.0023094
inclination: 82.9367°
perigee height: 959 km
apogee height: 993 km
right ascension of ascending node: 328.7006°
argument of perigee: 135.1316°
revolutions per day: 13.76515060
mean anomaly at epoch: 293.2675°
orbit number at epoch: 51281

The dashed part of the orbit path shows where the satellite is in the earth's shadow,  

DLR